Torna al catalogo

SL-12 R/B(2)

AttivoGEO
NORAD 13899·ROCKET BODY·🇷🇺 Russia

Lanciato Mar 15, 1982 da Baikonur Cosmodrome

Loading…

TLE

AggiornatoSource: Space-Track

Epoca: Sep 14, 2026, 14:20 UTC

1 13899U 82020F   26257.59772111 -.00000140  00000-0  00000-0 0  9993
2 13899   8.1095 299.3004 0026082 211.5636 172.1650  0.98636048121868

Traccia SL-12 R/B(2) in tempo reale con AllMySat

Download on the App Store